Location: Newark
(54.8972°N, 99.8189°W)
Time: 05:59:31
(UTC+00:00)

Vanguard 3 - All Passes

Search period start: 14 November 2019 00:00
Search period end: 24 November 2019 00:00
Orbit: 508 x 3263 km, 33.3° (Epoch: 12 November)

Date Brightness Start Highest point End Pass type
(mag) Time Alt. Az. Time Alt. Az. Time Alt. Az.
14 Nov - 02:12:28 10° WSW 02:20:48 19° SSW 02:26:55 10° SSE visible
14 Nov - 20:30:32 10° S 20:42:14 20° SSE 20:52:08 10° ESE daylight
14 Nov - 22:40:53 10° SW 22:54:51 28° S 23:05:06 10° ESE daylight
15 Nov - 00:55:17 10° WSW 01:06:55 26° SSW 01:15:02 10° SSE visible
15 Nov - 03:13:23 10° WSW 03:17:21 12° SW 03:20:43 10° SSW visible
15 Nov - 19:18:52 10° SSE 19:27:24 15° SE 19:35:17 10° ESE daylight
15 Nov - 21:25:42 10° SSW 21:39:52 27° SSE 21:51:04 10° ESE daylight
15 Nov - 23:38:38 10° WSW 23:52:30 30° S 00:02:19 10° SE visible
16 Nov - 01:54:35 10° WSW 02:03:54 20° SSW 02:10:45 10° SSE visible
16 Nov - 20:11:40 10° SSW 20:24:46 23° SSE 20:36:06 10° ESE daylight
16 Nov - 22:22:35 10° SW 22:37:37 31° S 22:48:54 10° ESE daylight
17 Nov - 00:37:14 10° WSW 00:49:53 27° SSW 00:58:51 10° SSE visible
17 Nov - 02:55:46 10° WSW 03:00:24 13° SW 03:04:21 10° SSW visible
17 Nov - 18:59:23 10° S 19:09:50 17° SE 19:19:38 10° ESE daylight
17 Nov - 21:07:20 10° SW 21:22:28 29° SSE 21:34:47 10° ESE daylight
17 Nov - 23:20:31 10° WSW 23:35:19 31° S 23:46:04 10° SE visible
18 Nov - 01:36:43 10° WSW 01:46:52 21° SSW 01:54:25 10° S visible
18 Nov - 17:51:52 10° SE 17:55:15 11° SE 17:58:38 10° ESE daylight
18 Nov - 19:53:11 10° SSW 20:07:14 25° SSE 20:19:46 10° ESE daylight
18 Nov - 22:04:26 10° SW 22:20:16 33° S 22:32:33 10° ESE daylight
19 Nov - 00:19:15 10° WSW 00:32:44 28° SSW 00:42:31 10° SSE visible
19 Nov - 02:38:13 10° WSW 02:43:20 13° SW 02:47:42 10° SSW visible
19 Nov - 18:40:33 10° S 18:52:12 20° SE 19:03:27 10° ESE daylight
19 Nov - 20:49:12 10° SW 21:04:56 31° SSE 21:18:17 10° ESE daylight
19 Nov - 23:02:30 10° WSW 23:18:00 32° S 23:29:39 10° SE visible
20 Nov - 01:18:54 10° WSW 01:29:43 21° SW 01:37:55 10° S visible
20 Nov - 17:30:55 10° SSE 17:37:35 13° SE 17:44:19 10° ESE daylight
20 Nov - 19:35:00 10° SSW 19:49:35 27° SSE 20:03:11 10° ESE daylight
20 Nov - 21:46:28 10° SW 22:02:47 34° S 22:16:01 10° ESE daylight
21 Nov - 00:01:20 10° WSW 00:15:26 28° SSW 00:26:00 10° SSE visible
21 Nov - 02:20:47 10° WSW 02:26:08 13° SW 02:30:47 10° SSW visible
21 Nov - 18:22:11 10° S 18:34:30 22° SE 18:46:54 10° ESE daylight
21 Nov - 20:31:18 10° SW 20:47:20 33° SSE 21:01:36 10° ESE daylight
21 Nov - 22:44:37 10° WSW 23:00:34 33° SSW 23:13:04 10° SE visible
22 Nov - 01:01:07 10° WSW 01:12:24 21° SW 01:21:13 10° S visible
22 Nov - 17:11:40 10° SSE 17:19:52 15° SE 17:28:25 10° ESE daylight
22 Nov - 19:17:06 10° SSW 19:31:54 29° SSE 19:46:22 10° ESE daylight
22 Nov - 21:28:41 10° WSW 21:45:14 35° S 21:59:18 10° ESE daylight
22 Nov - 23:43:31 10° WSW 23:58:01 28° SSW 00:09:20 10° SSE visible
23 Nov - 02:03:33 10° WSW 02:08:49 12° SW 02:13:28 10° SSW visible
23 Nov - 18:04:11 10° S 18:16:46 23° SSE 18:30:02 10° ESE daylight
23 Nov - 20:13:36 10° SW 20:29:40 35° S 20:44:46 10° ESE daylight
23 Nov - 22:26:52 10° WSW 22:43:01 33° SSW 22:56:19 10° SE daylight
